Regional Weather Roundup
Issued by NWS

Home | Current Version | Previous Version | Graphics & Text | Print | Product List | Glossary On
Versions: 1 2 3 4 5 6 7 8 9 10 11 12 13 14 15 16 17 18 19 20 21 22 23 24 25 26 27 28 29 30 31 32 33 34 35 36 37 38 39 40 41 42 43 44 45 46 47 48 49 50
387
ASUS43 KMKX 200800
RWRWI

WISCONSIN REGIONAL WEATHER ROUNDUP
NATIONAL WEATHER SERVICE MILWAUKEE/SULLIVAN WI
300 AM CDT WED SEP 20 2017

NOTE: "FAIR" INDICATES FEW OR NO CLOUDS BELOW 12,000 FEET WITH NO
SIGNIFICANT WEATHER AND/OR OBSTRUCTIONS TO VISIBILITY.

WIZ001-002-006>008-014>016-023>028-200900-
NORTHWEST WISCONSIN

CITY           SKY/WX    TMP DP  RH WIND       PRES   REMARKS
SUPERIOR ARPT  CLOUDY    66  61  82 SE13G18   29.62F
ASHLAND        CLOUDY    65  58  78 S10G17    29.73F
HAYWARD        CLOUDY    66  60  81 SE20G38   29.72F
SIREN          CLOUDY    68  59  73 SE23G31   29.63F
CUMBERLAND     CLOUDY    63  59  88 SE15      29.70F
RICE LAKE      CLOUDY    66  61  85 SE17G23   29.73F
CHETEK         CLOUDY    66  63  88 SE14G24   29.73F
LADYSMITH      CLOUDY    65  60  84 SE13G18   29.81F
EAU CLAIRE     NOT AVBL
MENOMONIE      CLOUDY    66  62  87 E14       29.72F
NEW RICHMOND   NOT AVBL
OSCEOLA        CLOUDY    70  62  74 SE22G29   29.64F
$$

WIZ003>005-009-010-017-018-200900-
NORTH CENTRAL WISCONSIN

CITY           SKY/WX    TMP DP  RH WIND       PRES   REMARKS
MANITOWISH WTR CLOUDY    57  57 100 SE9       29.87F
ARBOR VITAE    CLOUDY    59  56  88 S8        29.89S
WOODRUFF       CLOUDY    59  56  88 S8        29.89S
RHINELANDER    CLOUDY    57  57 100 SE8       29.91S
EAGLE RIVER    CLOUDY    57  52  84 S6        29.91S
LAND O LAKES   CLOUDY    56  52  86 S7        29.92S
PHILLIPS       CLOUDY    60  59  97 SE9G18    29.85F
TOMAHAWK         N/A     58  55  91 SE5       29.90S
MEDFORD        CLOUDY    60  58  92 SE10G16   29.86S
MERRILL          N/A     61  59  94 SE8       29.91S
$$

WIZ029-030-035-036-043>047-200900-
CENTRAL WISCONSIN

CITY           SKY/WX    TMP DP  RH WIND       PRES   REMARKS
WAUSAU         MOCLDY    60  58  92 SE8       29.89S
MOSINEE        PTCLDY    59  59 100 SE8       29.91R FOG
MARSHFIELD     CLEAR     60  57  89 SE8       29.86F FOG
STEVENS POINT  CLEAR     58  58 100 SE6       29.90S FOG
WAUPACA        PTCLDY    60  59  97 CALM      29.92S FOG
WAUTOMA        FOG       57  57 100 CALM      29.90F VSB 3/4
WISC RAPIDS    PTCLDY    61  59  93 SE10      29.88F
CAMP DOUGLAS   NOT AVBL
$$

WIZ011>013-019>022-031-037>040-048>050-200900-
NORTHEAST WISCONSIN

CITY           SKY/WX    TMP DP  RH WIND       PRES   REMARKS
ANTIGO         CLOUDY    56  55  94 SE9       29.93S
SHAWANO        CLEAR     56  54  92 CALM      29.92F FOG
OCONTO         CLOUDY    52  52  99 CALM      29.92S
STURGEON BAY   CLEAR     62  61  96 SE8       29.94R
GREEN BAY      CLEAR     54  54 100 CALM      29.93S
MANITOWOC      PTCLDY    64  62  93 SE5       29.94R
APPLETON       CLEAR     59  59 100 SE5       29.91R
CLINTONVILLE   CLOUDY    54  54 100 CALM      29.91F
OSHKOSH        CLOUDY    61  60  97 S6        29.91S FOG
$$

WIZ032>034-041-042-053>061-200900-
SOUTHWEST WISCONSIN

CITY           SKY/WX    TMP DP  RH WIND       PRES   REMARKS
LA CROSSE      MOCLDY    71  64  78 SE17      29.77F
SPARTA         MOCLDY    67  62  83 SE8       29.83S
VIROQUA        PTCLDY    64  64 100 SE12G17   29.83F
BOSCOBEL       CLEAR     68  62  81 CALM      29.84R
PRAIRIE DU CHI CLOUDY    67  62  83 E6        29.81S
PLATTEVILLE    CLEAR     65  65 100 SE13      29.86R
$$

WIZ056-057-062-063-064-067-068-200900-
SOUTH CENTRAL WISCONSIN

CITY           SKY/WX    TMP DP  RH WIND       PRES   REMARKS
REEDSBURG      MOCLDY    63  63  99 SE6       29.86F
BARABOO/DELLS  PTCLDY    63  59  88 SE8       29.88S
LONE ROCK      MOCLDY    66  63  90 SE10      29.85S
MINERAL POINT  CLEAR     64  64 100 SE12      29.87R FOG
MADISON        CLEAR     62  60  93 SE7       29.89R
MIDDLETON      CLEAR     63  63 100 SE6       29.90R
WATERTOWN      CLOUDY    61  61 100 SE7       29.90S FOG
MONROE         CLEAR     63  61  94 SE7       29.89R FOG
JANESVILLE     CLEAR     61  61 100 E3        29.89R FOG
$$

WIZ051-052-058>065-066-070>072-200900-
SOUTHEAST WISCONSIN

CITY           SKY/WX    TMP DP  RH WIND       PRES   REMARKS
MILWAUKEE      MOCLDY    60  59  96 CALM      29.92R FOG
WAUKESHA       CLOUDY    61  61 100 CALM      29.93S FOG
MILWAUKEE/TIMM FOG       55  54  94 CALM      29.92S VSB 1/4
RACINE         MOCLDY    59  58  96 CALM      29.93S FOG
BURLINGTON     FOG       62  62 100 CALM      29.91F VSB 1/4
KENOSHA        FOG       56  55  97 CALM      29.91F VSB 1/4
FOND DU LAC    PTCLDY    61  58  90 S6        29.92S
SHEBOYGAN      FOG       53  53 100 CALM      29.93R VSB 1/4
WEST BEND      FOG       59  59 100 CALM      29.92S VSB<1/4
JUNEAU         CLOUDY    60  59  98 SE6       29.92S FOG
$$

LSZ147-162-200900-
LAKE SUPERIOR

STATION/POSITION TIME  TEMP    WIND        PRES    WAVE
                       AIR SEA DIR/SP/G            HT/PER
                 (UTC) (F)     (DEG/KT/KT) (MB)    (FT/S)
W MID LAKE BUOY  0650   60 55  150/ 17/ 21 1009.1F   2/ 4
DEVILS ISLAND    0700   64     130/ 15/ 18 1007.5F
PORT WING        0630   67     130/  6/ 16 1006.4F
SAXON HARBOR     0730   65     190/  7/ 13 1007.1F
$$

LMZ867-665-643>646-200900-
LAKE MICHIGAN

STATION/POSITION TIME  TEMP    WIND        PRES    WAVE
                       AIR SEA DIR/SP/G            HT/PER
                 (UTC) (F)     (DEG/KT/KT) (MB)    (FT/S)
S GREEN BAY BUOY 0730   65 66  170/  8/  8 1013.2R
N MID LAKE BUOY  0650   65 65  140/ 10/ 12 1014.2R   2/ 4
NORTHPORT PIER   0740   65     160/  3/  5 1013.9R
KEWAUNEE LAKESHO 0730   64     190/  6/  7 1012.7R
SHEBOYGAN LAKESH 0700   66     170/ 11/ 12 1012.8R
PORT WASHINGTON  0740   66     220/  2/  4 1014.2R
ATWATER BUOY     0609   68 68  150/ 10/ 14 1013.2S
MILWAUKEE LAKESH 0730   65     200/  2/  3   N/A
S MID LAKE BUOY  0650   68 69  100/  8/ 10 1012.9F   1
KENOSHA   LAKESH 0700   67     190/  3/  5 1012.9
$$

TC  - TEMPERATURE IN CELSIUS
VSB - VISIBILITY IN STATUTE MILES
WCI - WIND CHILL INDEX
HX  - HEAT INDEX





USA.gov is the U.S. government's official web portal to all federal, state and local government web resources and services.